[[{"header":{"parameterUnit":"m.s-1","parameterCategory":1,"la1":30.2991,"la2":30.254,"lo1":-89.0895,"lo2":-89.0444,"dy":0.0017,"dx":0.0017,"nx":28,"ny":28,"refTime":"2024-05-22T03:00:00:Z","depth":0,"parameterNumber":2,"parameterNumberName":"U-component_of_WINDS"},"data":[0,0,0,0,0,0,0,0,0,0,0,0,0,0,0,0,0,0,0,0,0,0,0,0,0,0,0,0,0,0,0,0,0,0,0,0,0,0,0,0,0,0,0,0,0,0,0,0,0,0,0,0,0,0,0,0,0,0,-2.6966,-2.6966,0,-2.6992,-2.6992,-2.6992,-2.6969,-2.6968,-2.6967,-2.6966,-2.6992,-2.6994,-2.6995,0,0,0,0,0,0,0,0,0,0,0,0,0,-2.6896,-2.6898,-2.6966,-2.6966,-2.6966,-2.6992,-2.6992,-2.6992,-2.6969,-2.6968,-2.6967,-2.6966,-2.6992,-2.6993,-2.6995,0,0,0,0,0,0,0,0,0,0,0,0,0,-2.6925,-2.6898,-2.6966,-2.6958,-2.6958,-2.6992,-2.6992,-2.6993,-2.697,-2.6968,-2.6967,-2.6965,-2.6991,-2.6993,-2.6995,-2.7038,0,0,-2.7003,-2.7004,0,0,0,0,0,0,0,0,-2.6923,-2.6927,-2.6959,-2.6959,-2.6958,-2.6976,-2.6977,-2.7008,-2.697,-2.6965,-2.6966,-2.6965,-2.6988,-2.699,-2.6998,-2.7039,-2.704,-2.7003,-2.7004,-2.7005,-2.7006,0,0,0,0,0,0,0,-2.6921,-2.6926,-2.6976,-2.6959,-2.6959,-2.6953,-2.6956,-2.6983,-2.6984,-2.6965,-2.6964,-2.6967,-2.6987,-2.6996,-2.6999,-2.7041,-2.7003,-2.7005,-2.7006,-2.7007,-2.7119,-2.712,0,0,0,0,0,0,-2.692,-2.6925,-2.6975,-2.6977,-2.6937,-2.6956,-2.6958,-2.6972,-2.6984,-2.6984,-2.6968,-2.6966,-2.6993,-2.6996,-2.6999,-2.705,-2.7005,-2.7007,-2.7009,-2.7117,-2.7119,-2.7121,0,0,0,0,0,0,-2.6919,-2.6925,-2.6974,-2.695,-2.6956,-2.6958,-2.6973,-2.6973,-2.6981,-2.6986,-2.6986,-2.6977,-2.6992,-2.6996,-2.7029,-2.705,-2.7008,-2.7011,-2.7115,-2.7118,-2.712,-2.7151,0,0,0,0,0,0,-2.6917,-2.6925,-2.6941,-2.6951,-2.6958,-2.7003,-2.6975,-2.6974,-2.6986,-2.6983,-2.6994,-2.6994,-2.6991,-2.7025,-2.7031,-2.7053,-2.7012,-2.7113,-2.7116,-2.7119,-2.7148,-2.7154,-2.7159,0,0,0,0,0,-2.6914,-2.6948,-2.6941,-2.6948,-2.6978,-2.7004,-2.7008,-2.7004,-2.6988,-2.7004,-2.7007,-2.6994,-2.7048,-2.7029,-2.7035,-2.7058,-2.7112,-2.7116,-2.7119,-2.7146,-2.7153,-2.7159,0,0,0,0,0,0,-2.6939,-2.6949,-2.6942,-2.698,-2.6992,-2.7,-2.702,-2.7012,-2.7028,-2.7024,-2.7018,-2.7021,-2.7055,-2.706,-2.7039,-2.71,-2.7077,-2.7082,-2.7095,-2.7102,-2.7108,-2.7105,-2.7014,0,0,0,0,0,-2.6949,-2.697,-2.6978,-2.7011,-2.7017,-2.7018,-2.7029,-2.7025,-2.7037,-2.7041,-2.7047,-2.7059,-2.7078,-2.7091,-2.7109,-2.715,-2.7151,-2.7168,-2.7174,-2.7179,-2.7182,-2.7204,-2.7212,-2.7132,-2.7132,-2.7132,0,0,-2.697,-2.6978,-2.6991,-2.7016,-2.7024,-2.7046,-2.7022,-2.7046,-2.7062,-2.7045,-2.7076,-2.7081,-2.7093,-2.713,-2.7147,-2.7135,-2.7205,-2.7183,-2.7187,-2.7188,-2.7209,-2.7216,-2.7223,-2.7135,-2.7134,-2.7134,0,0,-2.7018,-2.7027,-2.7055,-2.7064,-2.7078,-2.7079,-2.7086,-2.7096,-2.7099,-2.713,-2.7118,-2.7138,-2.7171,-2.7181,-2.719,-2.7244,-2.7233,-2.7251,-2.7279,-2.7301,-2.7307,-2.7312,-2.7331,-2.7338,-2.7255,-2.7255,-2.7255,0,-2.7041,-2.7074,-2.707,-2.7095,-2.7106,-2.7093,-2.7122,-2.7131,-2.715,-2.7158,-2.7145,-2.7188,-2.7195,-2.7234,-2.7248,-2.7256,-2.7264,-2.7248,-2.7306,-2.7312,-2.7317,-2.7335,-2.7342,-2.7257,-2.7257,-2.7256,-2.7256,0,-2.7102,-2.7125,-2.7146,-2.7165,-2.7179,-2.7205,-2.7206,-2.722,-2.7216,-2.7218,-2.725,-2.726,-2.728,-2.7289,-2.7284,-2.7328,-2.732,-2.7307,-2.7284,-2.7327,-2.7343,-2.735,-2.726,-2.7259,-2.7258,-2.7258,0,0,-2.7163,-2.7182,-2.7189,-2.7198,-2.7213,-2.7231,-2.7258,-2.7278,-2.729,-2.7304,-2.7326,-2.7356,-2.7344,-2.7355,-2.7352,-2.7371,-2.7413,-2.7356,-2.7356,-2.7365,-2.7461,-2.7469,-2.7477,-2.7407,-2.7408,-2.7409,-2.7459,0,-2.7211,-2.7257,-2.7256,-2.7298,-2.732,-2.7309,-2.7332,-2.7344,-2.7347,-2.7366,-2.737,-2.7391,-2.7375,-2.7381,-2.74,-2.7404,-2.7432,-2.74,-2.7426,-2.7427,-2.7421,-2.7485,-2.7494,-2.7541,-2.7466,-2.7467,-2.7467,0,-2.7272,-2.7289,-2.7334,-2.7347,-2.7356,-2.7377,-2.7395,-2.7414,-2.7427,-2.7429,-2.7442,-2.7436,-2.7463,-2.7441,-2.7478,-2.7457,-2.7468,-2.7472,-2.7474,-2.7474,-2.7448,-2.7486,-2.7555,-2.7562,-2.7478,-2.7477,-2.7476,0,-2.7311,-2.7346,-2.7377,-2.7385,-2.7401,-2.7416,-2.7424,-2.7436,-2.7449,-2.7465,-2.7473,-2.7493,-2.7504,-2.7519,-2.7519,-2.7503,-2.7557,-2.7534,-2.7558,-2.7558,-2.7568,-2.7567,-2.7638,-2.7578,-2.7578,-2.7578,-2.7577,0,-2.7364,-2.7391,-2.7395,-2.7414,-2.7445,-2.7444,-2.7475,-2.7481,-2.7492,-2.7512,-2.7505,-2.7524,-2.7524,-2.7543,-2.7544,-2.7574,-2.7579,-2.7581,-2.758,-2.758,-2.758,-2.7586,-2.7582,-2.7579,-2.7579,-2.7579,-2.7578,0,-2.7411,-2.7415,-2.7448,-2.7462,-2.7466,-2.7488,-2.7499,-2.7518,-2.7522,-2.7547,-2.7553,-2.7559,-2.7582,-2.7584,-2.761,-2.7611,-2.7647,-2.7644,-2.7643,-2.7641,-2.7664,-2.7662,-2.774,-2.775,-2.7685,-2.7686,-2.7686,0,-2.7443,-2.7464,-2.7481,-2.7494,-2.7502,-2.7524,-2.7537,-2.7537,-2.7551,-2.757,-2.7586,-2.7608,-2.7626,-2.7663,-2.7669,-2.769,-2.7686,-2.7712,-2.7689,-2.7688,-2.7685,-2.7683,-2.7685,-2.7716,-2.7717,-2.7717,-2.7718,0,-2.75,-2.7501,-2.752,-2.754,-2.7557,-2.7572,-2.7587,-2.7599,-2.7601,-2.7617,-2.7641,-2.7655,-2.7683,-2.7705,-2.7725,-2.7733,-2.7726,-2.7726,-2.7732,-2.7731,-2.7729,-2.7729,-2.7653,-2.7723,-2.7723,-2.7722,-2.7722,-2.7722,-2.7539,-2.7558,-2.7572,-2.7594,-2.7606,-2.7621,-2.7638,-2.7645,-2.7665,-2.7688,-2.7687,-2.7713,-2.7728,-2.7754,-2.7764,-2.7784,-2.7775,-2.7785,-2.7787,-2.7789,-2.779,-2.7728,-2.7788,-2.7788,-2.7788,-2.7788,-2.7788,0,-2.7594,-2.7603,-2.7624,-2.7645,-2.7663,-2.7656,-2.7673,-2.7688,-2.7711,-2.7725,-2.7743,-2.7771,-2.7793,-2.7802,-2.7824,-2.7838,-2.7836,-2.7844,-2.7842,-2.7844,-2.7798,-2.779,-2.7846,-2.7846,-2.7846,-2.7846,-2.7846,-2.7846,-2.7624,-2.7655,-2.7658,-2.7695,-2.7704,-2.773,-2.774,-2.7754,-2.7765,-2.7796,-2.7815,-2.7821,-2.7834,-2.7856,-2.7876,-2.7879,-2.7886,-2.7896,-2.7896,-2.7853,-2.7847,-2.7841,-2.7833,-2.7898,-2.7898,-2.794,-2.7941,-2.7941]},{"header":{"parameterUnit":"m.s-1","parameterCategory":1,"la1":30.2991,"la2":30.254,"lo1":-89.0895,"lo2":-89.0444,"dy":0.0017,"dx":0.0017,"nx":28,"ny":28,"refTime":"2024-05-22T03:00:00:Z","depth":0,"parameterNumber":3,"parameterNumberName":"V-component_of_WINDS"},"data":[0,0,0,0,0,0,0,0,0,0,0,0,0,0,0,0,0,0,0,0,0,0,0,0,0,0,0,0,0,0,0,0,0,0,0,0,0,0,0,0,0,0,0,0,0,0,0,0,0,0,0,0,0,0,0,0,0,0,1.5621,1.562,0,1.5596,1.5595,1.5595,1.5564,1.5564,1.5564,1.5563,1.5534,1.5534,1.5534,0,0,0,0,0,0,0,0,0,0,0,0,0,1.5641,1.5641,1.5621,1.562,1.562,1.5596,1.5595,1.5595,1.5565,1.5564,1.5563,1.5563,1.5534,1.5534,1.5534,0,0,0,0,0,0,0,0,0,0,0,0,0,1.5626,1.5641,1.5621,1.5602,1.56,1.5596,1.5595,1.5595,1.5565,1.5564,1.5563,1.5563,1.5535,1.5534,1.5534,1.5545,0,0,1.5532,1.5532,0,0,0,0,0,0,0,0,1.5627,1.5625,1.5605,1.5603,1.5601,1.5583,1.5592,1.5578,1.5565,1.5578,1.5563,1.5562,1.5551,1.5549,1.5546,1.5543,1.5542,1.5532,1.5532,1.5532,1.5531,0,0,0,0,0,0,0,1.5628,1.5626,1.5611,1.5605,1.5602,1.5595,1.5592,1.5589,1.5569,1.5577,1.5575,1.5572,1.555,1.5546,1.5545,1.5542,1.5532,1.5532,1.5531,1.5531,1.5549,1.555,0,0,0,0,0,0,1.5632,1.5627,1.5612,1.561,1.5613,1.5595,1.5591,1.5589,1.5569,1.5565,1.5573,1.5571,1.5547,1.5545,1.5544,1.5556,1.5532,1.5531,1.5531,1.5549,1.555,1.555,0,0,0,0,0,0,1.5632,1.5631,1.5613,1.5618,1.5615,1.5595,1.5593,1.5589,1.5586,1.5566,1.5562,1.5573,1.5547,1.5544,1.5545,1.5555,1.5531,1.553,1.5548,1.5549,1.555,1.5581,0,0,0,0,0,0,1.5633,1.5631,1.5635,1.5618,1.5615,1.5615,1.5593,1.5589,1.5585,1.5583,1.5565,1.5561,1.5546,1.5546,1.5545,1.5554,1.553,1.5547,1.5548,1.555,1.5579,1.5584,1.5587,0,0,0,0,0,1.5634,1.5644,1.5636,1.5634,1.562,1.5616,1.5614,1.5597,1.5586,1.559,1.5578,1.5562,1.5554,1.5547,1.5545,1.5554,1.5546,1.5548,1.555,1.5578,1.5583,1.5587,0,0,0,0,0,0,1.5661,1.5641,1.5632,1.5637,1.5629,1.5611,1.5615,1.5602,1.5596,1.5593,1.5572,1.5568,1.5572,1.5563,1.5555,1.5564,1.5548,1.5549,1.557,1.5575,1.5578,1.558,1.553,0,0,0,0,0,1.5668,1.5667,1.565,1.5656,1.5652,1.5635,1.5632,1.562,1.561,1.5606,1.5593,1.5584,1.5579,1.5576,1.5571,1.5578,1.5575,1.5584,1.5588,1.5591,1.5592,1.5597,1.5601,1.5556,1.5556,1.5556,0,0,1.5681,1.5671,1.5671,1.5661,1.5653,1.5652,1.5632,1.5631,1.5631,1.5605,1.5606,1.5597,1.5585,1.559,1.5591,1.5582,1.5604,1.5593,1.5596,1.5595,1.5599,1.5603,1.5607,1.5557,1.5557,1.5557,0,0,1.5706,1.5698,1.5702,1.5696,1.5685,1.5673,1.5675,1.5659,1.5653,1.5653,1.5635,1.5634,1.5626,1.5619,1.5614,1.5639,1.5624,1.5638,1.5657,1.5662,1.5665,1.5668,1.5678,1.5682,1.5639,1.5639,1.5639,0,1.5724,1.5723,1.5706,1.5708,1.5704,1.5684,1.5689,1.5682,1.567,1.5668,1.5659,1.565,1.564,1.5644,1.565,1.5647,1.5648,1.5639,1.5666,1.5669,1.5672,1.5681,1.5684,1.5641,1.5641,1.5641,1.564,0,1.5746,1.5745,1.5751,1.5741,1.5738,1.5741,1.5725,1.5724,1.5713,1.5703,1.5705,1.5693,1.5686,1.5686,1.5674,1.5688,1.5683,1.5671,1.5653,1.5678,1.5686,1.5689,1.5643,1.5643,1.5642,1.5642,0,0,1.5785,1.5768,1.577,1.5766,1.5753,1.5753,1.5755,1.575,1.575,1.5742,1.5744,1.574,1.5729,1.5724,1.5711,1.5716,1.5737,1.5703,1.5702,1.571,1.5753,1.5763,1.5767,1.5728,1.5729,1.5729,1.5754,0,1.5807,1.5811,1.5798,1.5806,1.5806,1.5787,1.579,1.5782,1.5774,1.5772,1.5762,1.5759,1.5745,1.5742,1.5745,1.5734,1.5746,1.5732,1.573,1.573,1.5733,1.5771,1.578,1.5804,1.5757,1.5758,1.5758,0,1.5833,1.5829,1.5837,1.5826,1.5825,1.5828,1.5823,1.5822,1.5813,1.5807,1.5802,1.5789,1.5791,1.5776,1.5779,1.577,1.5768,1.5763,1.5763,1.5762,1.5745,1.5771,1.5812,1.5815,1.5763,1.5762,1.5762,0,1.5861,1.5858,1.5863,1.586,1.5847,1.5849,1.5844,1.5835,1.5833,1.5828,1.5827,1.5822,1.582,1.5816,1.5802,1.5792,1.5807,1.579,1.5802,1.5802,1.5805,1.5805,1.5847,1.5805,1.5804,1.5804,1.5804,0,1.5887,1.5893,1.5876,1.5878,1.5885,1.587,1.5876,1.5869,1.5862,1.5863,1.5847,1.5848,1.583,1.5829,1.5818,1.5823,1.5822,1.5816,1.5813,1.5818,1.5819,1.5816,1.5814,1.5805,1.5805,1.5805,1.5805,0,1.592,1.5908,1.5912,1.59,1.5898,1.5903,1.5893,1.5895,1.5886,1.5888,1.5888,1.5873,1.5872,1.5858,1.5854,1.5846,1.5856,1.5849,1.5859,1.5857,1.5869,1.5868,1.591,1.5915,1.587,1.5871,1.5871,0,1.5937,1.5941,1.5931,1.5931,1.5927,1.5927,1.5926,1.5912,1.5911,1.5903,1.5907,1.5905,1.5902,1.5901,1.589,1.5887,1.5881,1.5896,1.588,1.5885,1.5881,1.5881,1.5882,1.5899,1.5899,1.59,1.59,0,1.5969,1.5964,1.5963,1.596,1.596,1.5957,1.5953,1.5954,1.5938,1.5938,1.5938,1.5936,1.5933,1.5931,1.5927,1.5921,1.5908,1.5906,1.5908,1.5913,1.5918,1.5916,1.5868,1.5904,1.5904,1.5904,1.5904,1.5903,1.5994,1.5998,1.5992,1.5992,1.5988,1.5985,1.5987,1.598,1.5979,1.5976,1.5968,1.5969,1.5962,1.5955,1.5951,1.5951,1.5944,1.5947,1.5948,1.5949,1.5952,1.5919,1.595,1.595,1.595,1.595,1.595,0,1.6026,1.6022,1.6022,1.6018,1.6018,1.6008,1.6004,1.6005,1.6006,1.6002,1.6,1.6001,1.6,1.599,1.5987,1.599,1.5984,1.599,1.599,1.5989,1.5959,1.5957,1.5995,1.5995,1.5995,1.5995,1.5995,1.5995,1.6043,1.6049,1.6043,1.6047,1.6043,1.6045,1.6043,1.6041,1.6038,1.6039,1.6039,1.6033,1.6026,1.6024,1.6023,1.602,1.602,1.6028,1.6023,1.5995,1.5991,1.5986,1.5985,1.6028,1.6028,1.6053,1.6053,1.6053]}]]